K0WOI Weather Reports


Display with metric or nautical units.
time (UTC)temp
F
wind
direction
speed
MPH
gust
MPH
rain 1hr
in
rain 24hr
in
rain mn
in
humidity
%
barometer
mb
20260901160741 86 82 2.0 2.0 0.00 0.00 0.00 66 1013.6
20260901160236 86 82 3.0 3.0 0.00 0.00 0.00 68 1013.6
20260901155735 86 82 2.0 2.0 0.00 0.00 0.00 71 1013.5
20260901155230 86 82 2.0 2.0 0.00 0.00 0.00 68 1013.6
20260901154725 85 82 0.0 0.0 0.00 0.00 0.00 71 1013.5
20260901154221 85 82 2.0 3.0 0.00 0.00 0.00 71 1013.4
20260901153716 85 82 2.0 2.0 0.00 0.00 0.00 70 1013.5
20260901153209 84 82 1.0 1.0 0.00 0.00 0.00 73 1013.6
20260901152704 84 82 1.0 2.0 0.00 0.00 0.00 74 1013.3
20260901152203 84 82 0.0 1.0 0.00 0.00 0.00 76 1013.2
20260901151659 83 82 2.0 3.0 0.00 0.00 0.00 76 1013.4
20260901151158 83 82 2.0 2.0 0.00 0.00 0.00 75 1013.3
20260901150657 84 82 3.0 5.0 0.00 0.00 0.00 75 1013.6
20260901150155 83 82 1.0 2.0 0.00 0.00 0.00 76 1013.5
20260901145654 82 82 0.0 0.0 0.00 0.00 0.00 77 1013.7
20260901145154 82 82 1.0 1.0 0.00 0.00 0.00 80 1013.4
20260901144649 82 82 2.0 2.0 0.00 0.00 0.00 84 1013.5
20260901144144 80 81 0.0 0.0 0.00 0.00 0.00 86 1013.6
20260901143639 79 81 0.0 0.0 0.00 0.00 0.00 87 1013.6
20260901143136 79 81 0.0 1.0 0.00 0.00 0.00 88 1013.6
20260901142632 78 81 1.0 1.0 0.00 0.00 0.00 88 1013.6
20260901142131 78 81 1.0 2.0 0.00 0.00 0.00 91 1013.7
20260901141625 77 81 0.0 1.0 0.00 0.00 0.00 92 1013.6
20260901141120 76 81 0.0 1.0 0.00 0.00 0.00 94 1013.7
20260901140619 76 80 0.0 0.0 0.00 0.00 0.00 96 1013.7
20260901140118 75 80 0.0 1.0 0.00 0.00 0.00 98 1013.8
20260901135618 75 79 0.0 0.0 0.00 0.00 0.00 99 1013.9
20260901135113 74 79 0.0 0.0 0.00 0.00 0.00 99 1013.9
20260901134609 74 79 0.0 0.0 0.00 0.00 0.00 99 1013.8
20260901134104 74 79 0.0 0.0 0.00 0.00 0.00 99 1013.7
20260901133603 74 79 0.0 0.0 0.00 0.00 0.00 99 1013.9
20260901133102 74 79 0.0 0.0 0.00 0.00 0.00 99 1013.9
20260901132557 73 79 0.0 0.0 0.00 0.00 0.00 99 1013.8
20260901132051 73 79 0.0 0.0 0.00 0.00 0.00 99 1013.8
20260901131551 73 79 0.0 0.0 0.00 0.00 0.00 99 1013.9
20260901131045 73 79 0.0 0.0 0.00 0.00 0.00 99 1013.7
20260901130540 73 79 0.0 0.0 0.00 0.00 0.00 99 1013.8
20260901130038 73 79 0.0 0.0 0.00 0.00 0.00 99 1013.5
20260901125537 73 79 0.0 0.0 0.00 0.00 0.00 99 1013.6
20260901125033 73 79 0.0 0.0 0.00 0.00 0.00 99 1013.7
20260901124532 73 79 0.0 0.0 0.00 0.00 0.00 99 1013.6
20260901124027 73 79 0.0 0.0 0.00 0.00 0.00 99 1013.3
20260901123522 73 79 0.0 0.0 0.00 0.00 0.00 99 1013.4
20260901123021 73 79 0.0 0.0 0.00 0.00 0.00 99 1013.5
20260901122520 73 79 0.0 0.0 0.00 0.00 0.00 99 1013.4
20260901122014 73 79 0.0 0.0 0.00 0.00 0.00 99 1013.4
20260901121509 73 79 0.0 0.0 0.00 0.00 0.00 99 1013.5
20260901121004 73 79 0.0 0.0 0.00 0.00 0.00 99 1013.2
20260901120504 73 79 0.0 0.0 0.00 0.00 0.00 99 1013.5
20260901115959 72 80 0.0 0.0 0.00 0.00 0.00 99 1013.2
20260901115454 72 80 0.0 0.0 0.00 0.00 0.00 99 1013.4
20260901114952 72 80 0.0 0.0 0.00 0.00 0.00 99 1013.2
20260901114447 72 80 0.0 0.0 0.00 0.00 0.00 99 1013.3
20260901113945 72 80 0.0 0.0 0.00 0.00 0.00 99 1013.3
20260901113444 71 80 0.0 0.0 0.00 0.00 0.00 99 1013.4
20260901112939 72 80 0.0 0.0 0.00 0.00 0.00 99 1013.2
20260901112435 72 80 0.0 0.0 0.00 0.00 0.00 99 1013.3
20260901111924 72 80 0.0 0.0 0.00 0.00 0.00 99 1013.6
20260901111422 72 80 0.0 0.0 0.00 0.00 0.00 99 1013.2
20260901110921 71 80 0.0 0.0 0.00 0.00 0.00 99 1013.1
20260901110417 72 80 0.0 0.0 0.00 0.00 0.00 99 1013.3
20260901105912 72 80 0.0 0.0 0.00 0.00 0.00 99 1013.2
20260901105403 72 80 0.0 0.0 0.00 0.00 0.00 99 1013.3
20260901104858 72 80 0.0 0.0 0.00 0.00 0.00 99 1013.2
20260901104353 72 80 0.0 0.0 0.00 0.00 0.00 99 1013.1
20260901103849 72 80 0.0 0.0 0.00 0.00 0.00 99 1013.2
20260901103348 72 80 0.0 0.0 0.00 0.00 0.00 99 1013.4
20260901102843 72 80 0.0 0.0 0.00 0.00 0.00 99 1013.4
20260901102338 72 80 0.0 0.0 0.00 0.00 0.00 99 1013.3
20260901101833 72 80 0.0 1.0 0.00 0.00 0.00 99 1013.3
20260901101333 72 80 0.0 0.0 0.00 0.00 0.00 99 1013.6
20260901100832 72 80 0.0 0.0 0.00 0.00 0.00 99 1013.3
20260901100328 72 80 0.0 0.0 0.00 0.00 0.00 99 1013.3
20260901095826 72 79 0.0 0.0 0.00 0.00 0.00 99 1013.4
20260901095324 72 79 0.0 0.0 0.00 0.00 0.00 99 1013.2
20260901094818 72 79 0.0 0.0 0.00 0.00 0.00 99 1013.2
20260901094313 72 79 0.0 0.0 0.00 0.00 0.00 99 1013.1
20260901093808 72 79 0.0 0.0 0.00 0.00 0.00 99 1013.5
20260901093307 72 79 0.0 0.0 0.00 0.00 0.00 99 1013.2
20260901092803 72 79 1.0 1.0 0.00 0.00 0.00 99 1013.3
20260901092259 72 79 0.0 0.0 0.00 0.00 0.00 99 1013.3
20260901091754 72 79 0.0 0.0 0.00 0.00 0.00 99 1013.3
20260901091249 72 79 0.0 0.0 0.00 0.00 0.00 99 1013.4
20260901090744 72 79 0.0 0.0 0.00 0.00 0.00 99 1013.5
20260901090239 72 79 0.0 0.0 0.00 0.00 0.00 99 1013.6
20260901085735 72 79 0.0 0.0 0.00 0.00 0.00 99 1013.3
20260901085230 72 79 0.0 0.0 0.00 0.00 0.00 99 1013.5
20260901084726 72 79 0.0 0.0 0.00 0.00 0.00 99 1013.5
20260901084222 72 79 0.0 0.0 0.00 0.00 0.00 99 1013.4
20260901083717 72 79 0.0 0.0 0.00 0.00 0.00 99 1013.3
20260901083216 72 79 0.0 0.0 0.00 0.00 0.00 99 1013.4
20260901082715 72 79 0.0 0.0 0.00 0.00 0.00 99 1013.4
20260901082211 72 80 0.0 0.0 0.00 0.00 0.00 99 1013.3
20260901081706 72 80 0.0 0.0 0.00 0.00 0.00 99 1013.3
20260901081206 72 80 0.0 0.0 0.00 0.00 0.00 99 1013.5
20260901080701 73 80 0.0 0.0 0.00 0.00 0.00 99 1013.6
20260901080159 73 80 0.0 0.0 0.00 0.00 0.00 99 1013.6
20260901075654 73 80 0.0 0.0 0.00 0.00 0.00 99 1013.5
20260901075149 73 80 0.0 0.0 0.00 0.00 0.00 99 1013.7
20260901074648 73 80 0.0 0.0 0.00 0.00 0.00 99 1013.5
20260901074144 73 80 0.0 0.0 0.00 0.00 0.00 99 1013.7
20260901073640 73 80 0.0 0.0 0.00 0.00 0.00 99 1013.6
20260901073135 73 80 0.0 0.0 0.00 0.00 0.00 99 1013.7
20260901072630 73 80 0.0 0.0 0.00 0.00 0.00 99 1013.7
20260901072125 73 80 0.0 0.0 0.00 0.00 0.00 99 1013.5
20260901071625 73 80 0.0 0.0 0.00 0.00 0.00 99 1013.5
20260901071124 73 80 0.0 0.0 0.00 0.00 0.00 99 1013.5
20260901070619 73 80 0.0 0.0 0.00 0.00 0.00 99 1013.7
20260901070114 73 80 0.0 0.0 0.00 0.00 0.00 99 1013.8
20260901065608 73 80 0.0 0.0 0.00 0.00 0.00 99 1013.9
20260901065103 73 80 0.0 0.0 0.00 0.00 0.00 99 1013.6
20260901064600 73 80 0.0 0.0 0.00 0.00 0.00 99 1013.9
20260901064056 73 80 0.0 0.0 0.00 0.00 0.00 99 1013.6
20260901063553 73 80 0.0 0.0 0.00 0.00 0.00 99 1013.9
20260901063049 74 80 0.0 0.0 0.00 0.00 0.00 99 1013.8
20260901062544 74 80 0.0 0.0 0.00 0.00 0.00 99 1013.8
20260901062040 74 80 0.0 0.0 0.00 0.00 0.00 99 1013.6
20260901061536 74 80 0.0 0.0 0.00 0.00 0.00 99 1014.0
20260901061031 74 80 0.0 0.0 0.00 0.00 0.00 99 1013.9
20260901060525 74 81 0.0 0.0 0.00 0.00 0.00 99 1013.7
20260901060020 74 81 0.0 0.0 0.00 0.00 0.00 99 1013.9
20260901055516 74 81 0.0 0.0 0.00 0.00 0.00 99 1013.8
20260901055013 74 81 0.0 0.0 0.00 0.00 0.00 99 1014.0
20260901054509 74 81 0.0 0.0 0.00 0.00 0.00 99 1013.8
20260901054005 74 81 0.0 0.0 0.00 0.00 0.00 99 1013.6
20260901053500 74 81 0.0 0.0 0.00 0.00 0.00 99 1013.7
20260901052956 75 81 0.0 0.0 0.00 0.00 0.00 99 1013.9
20260901052452 75 81 0.0 0.0 0.00 0.00 0.00 99 1013.8
20260901051950 74 81 0.0 0.0 0.00 0.00 0.00 99 1013.8
20260901051446 74 81 0.0 0.0 0.00 0.00 0.00 99 1013.9
20260901050945 74 81 0.0 0.0 0.00 0.00 0.00 99 1013.5
20260901050441 75 81 0.0 0.0 0.00 0.00 0.00 99 1013.6
20260901045941 75 81 0.0 0.0 0.00 0.00 0.00 99 1013.6
20260901045436 75 81 0.0 0.0 0.00 0.00 0.00 99 1013.5
20260901044931 75 81 0.0 0.0 0.00 0.00 0.00 99 1013.3
20260901044427 75 81 0.0 0.0 0.00 0.00 0.00 99 1013.2
20260901043923 75 81 0.0 0.0 0.00 0.00 0.00 99 1013.4
20260901043419 75 81 0.0 0.0 0.00 0.00 0.00 99 1012.9
20260901042918 75 81 0.0 0.0 0.00 0.00 0.00 99 1013.3
20260901042413 75 81 0.0 0.0 0.00 0.00 0.00 99 1013.1
20260901041908 75 81 0.0 0.0 0.00 0.00 0.00 99 1013.3
20260901041403 75 81 0.0 0.0 0.00 0.00 0.00 99 1013.2
20260901040902 75 81 0.0 0.0 0.00 0.00 0.00 99 1013.1
20260901040402 75 81 0.0 0.0 0.00 0.00 0.00 99 1013.1
20260901035856 75 81 0.0 0.0 0.00 0.00 0.00 99 1013.0
20260901035355 76 81 0.0 0.0 0.00 0.00 0.00 99 1012.9
20260901034853 76 81 0.0 0.0 0.00 0.00 0.00 99 1013.0
20260901034348 76 81 0.0 0.0 0.00 0.00 0.00 99 1013.1
20260901033843 77 81 0.0 0.0 0.00 0.00 0.00 99 1013.0
20260901033342 77 81 0.0 0.0 0.00 0.00 0.00 99 1012.7
20260901032841 77 81 0.0 0.0 0.00 0.00 0.00 99 1012.9
20260901032341 77 81 0.0 0.0 0.00 0.00 0.00 99 1013.0
20260901031836 77 81 0.0 0.0 0.00 0.00 0.00 99 1012.9
20260901031332 77 81 0.0 0.0 0.00 0.00 0.00 99 1013.0
20260901030831 77 81 0.0 0.0 0.00 0.00 0.00 99 1013.2
20260901030327 77 81 0.0 0.0 0.00 0.00 0.00 99 1012.9
20260901025826 77 81 0.0 0.0 0.00 0.00 0.00 98 1013.0
20260901025321 77 81 0.0 0.0 0.00 0.00 0.00 98 1012.9
20260901024816 77 81 0.0 0.0 0.00 0.00 0.00 98 1013.2
20260901024315 77 81 0.0 0.0 0.00 0.00 0.00 97 1012.8
20260901023813 78 81 0.0 0.0 0.00 0.00 0.00 97 1012.8
20260901023308 78 81 0.0 0.0 0.00 0.00 0.00 97 1013.1
20260901022804 78 81 0.0 0.0 0.00 0.00 0.00 97 1012.9
20260901022300 79 81 0.0 0.0 0.00 0.00 0.00 96 1012.9
20260901021754 79 81 0.0 0.0 0.00 0.00 0.00 95 1012.7
20260901021250 79 81 0.0 0.0 0.00 0.00 0.00 94 1012.9
20260901020745 80 81 0.0 0.0 0.00 0.00 0.00 94 1013.0
20260901020240 80 81 0.0 0.0 0.00 0.00 0.00 93 1012.5
20260901015735 80 81 0.0 1.0 0.00 0.00 0.00 94 1012.8
20260901015231 80 81 0.0 1.0 0.00 0.00 0.00 93 1012.6
20260901014730 81 81 0.0 0.0 0.00 0.00 0.00 93 1012.8
20260901014226 81 81 0.0 0.0 0.00 0.00 0.00 93 1012.5
20260901013722 81 81 0.0 1.0 0.00 0.00 0.00 93 1012.6
20260901013217 81 81 0.0 0.0 0.00 0.00 0.00 93 1012.6
20260901012712 81 81 0.0 0.0 0.00 0.00 0.00 92 1012.4
20260901012207 82 81 0.0 0.0 0.00 0.00 0.00 92 1012.5
20260901011703 82 81 1.0 1.0 0.00 0.00 0.00 92 1012.2
20260901011202 82 81 0.0 0.0 0.00 0.00 0.00 91 1012.3
20260901010657 82 82 0.0 0.0 0.00 0.00 0.00 90 1012.6
20260901010151 82 82 0.0 0.0 0.00 0.00 0.00 90 1012.3
20260901005650 83 82 0.0 1.0 0.00 0.00 0.00 90 1012.3
20260901005146 83 82 0.0 0.0 0.00 0.00 0.00 89 1012.2
20260901004645 83 82 0.0 1.0 0.00 0.00 0.00 89 1012.1
20260901004140 83 82 0.0 0.0 0.00 0.00 0.00 89 1012.5
20260901003635 84 82 0.0 0.0 0.00 0.00 0.00 88 1012.4
20260901003133 84 82 0.0 0.0 0.00 0.00 0.00 87 1012.2
20260901002628 85 82 0.0 0.0 0.00 0.00 0.00 86 1012.2
20260901002122 85 82 0.0 0.0 0.00 0.00 0.00 85 1012.0
20260901001618 85 82 0.0 0.0 0.00 0.00 0.00 85 1012.1
20260901001113 85 82 0.0 0.0 0.00 0.00 0.00 85 1012.3
20260901000608 85 83 1.0 1.0 0.00 0.00 0.00 84 1012.1
20260901000104 85 82 0.0 0.0 0.00 0.00 0.00 84 1012.4
20260831235557 85 82 1.0 1.0 0.00 0.00 0.00 84 1012.3
20260831235052 86 82 0.0 1.0 0.00 0.00 0.00 83 1012.2
20260831234546 86 82 0.0 0.0 0.00 0.00 0.00 82 1012.1
20260831234043 86 83 0.0 1.0 0.00 0.00 0.00 82 1012.1
20260831233537 86 83 1.0 1.0 0.00 0.00 0.00 81 1011.9
20260831233033 86 84 2.0 2.0 0.00 0.00 0.00 81 1012.0
20260831232528 87 83 1.0 1.0 0.00 0.00 0.00 81 1011.9
20260831232024 87 84 3.0 3.0 0.00 0.00 0.00 80 1012.0
20260831231520 87 83 0.0 0.0 0.00 0.00 0.00 80 1012.1
20260831231016 87 83 1.0 1.0 0.00 0.00 0.00 79 1011.9
20260831230510 87 84 1.0 2.0 0.00 0.00 0.00 79 1012.0
20260831230005 88 83 2.0 2.0 0.00 0.00 0.00 79 1012.0
20260831225500 89 84 1.0 2.0 0.00 0.00 0.00 77 1012.3
20260831224954 90 84 0.0 1.0 0.00 0.00 0.00 75 1012.0
20260831224450 90 84 2.0 2.0 0.00 0.00 0.00 74 1012.2
20260831223944 90 86 4.0 5.0 0.00 0.00 0.00 72 1011.9
20260831223440 90 84 1.0 2.0 0.00 0.00 0.00 73 1011.8
20260831222936 90 84 2.0 3.0 0.00 0.00 0.00 71 1011.8
20260831222431 91 91 4.0 6.0 0.00 0.00 0.00 72 1011.8
20260831221926 91 84 1.0 1.0 0.00 0.00 0.00 74 1011.9
20260831221422 92 85 2.0 3.0 0.00 0.00 0.00 72 1012.0
20260831220917 91 84 2.0 2.0 0.00 0.00 0.00 71 1012.0
20260831220413 91 85 3.0 3.0 0.00 0.00 0.00 72 1011.9
20260831215908 91 84 1.0 1.0 0.00 0.00 0.00 72 1011.9
20260831215403 91 86 4.0 5.0 0.00 0.00 0.00 70 1011.9
20260831214859 91 84 1.0 2.0 0.00 0.00 0.00 69 1011.8
20260831214357 91 85 3.0 3.0 0.00 0.00 0.00 70 1011.7
20260831213852 92 86 4.0 5.0 0.00 0.00 0.00 70 1011.5
20260831213349 91 85 2.0 2.0 0.00 0.00 0.00 71 1011.7
20260831212843 90 86 3.0 3.0 0.00 0.00 0.00 72 1011.8
20260831212340 91 90 4.0 5.0 0.00 0.00 0.00 73 1011.8
20260831211839 90 84 3.0 3.0 0.00 0.00 0.00 74 1011.6
20260831211334 92 95 7.0 8.0 0.00 0.00 0.00 72 1011.7
20260831210833 91 87 3.0 3.0 0.00 0.00 0.00 72 1011.9
20260831210330 92 84 1.0 2.0 0.00 0.00 0.00 74 1011.8
20260831205829 91 86 3.0 3.0 0.00 0.00 0.00 72 1011.9
20260831205325 91 86 2.0 2.0 0.00 0.00 0.00 71 1012.0
20260831204820 92 89 1.0 3.0 0.00 0.00 0.00 71 1011.7
20260831204319 92 85 1.0 1.0 0.00 0.00 0.00 74 1012.0
20260831203818 92 84 4.0 5.0 0.00 0.00 0.00 71 1012.0
20260831203313 92 83 1.0 1.0 0.00 0.00 0.00 74 1011.9
20260831202811 91 83 1.0 2.0 0.00 0.00 0.00 76 1011.8
20260831202307 91 84 2.0 2.0 0.00 0.00 0.00 73 1011.9
20260831201807 91 84 1.0 1.0 0.00 0.00 0.00 74 1011.8
20260831201305 91 85 3.0 3.0 0.00 0.00 0.00 72 1011.8
20260831200801 91 84 1.0 2.0 0.00 0.00 0.00 74 1011.9
20260831200256 90 84 4.0 6.0 0.00 0.00 0.00 74 1011.6
20260831195751 89 83 1.0 1.0 0.00 0.00 0.00 75 1011.8
20260831195247 89 84 2.0 2.0 0.00 0.00 0.00 75 1012.0
20260831194742 89 84 3.0 3.0 0.00 0.00 0.00 73 1011.8
20260831194238 90 84 1.0 1.0 0.00 0.00 0.00 71 1011.9
20260831193731 91 85 3.0 5.0 0.00 0.00 0.00 69 1011.9
20260831193227 91 84 1.0 1.0 0.00 0.00 0.00 68 1011.9
20260831192722 92 84 1.0 1.0 0.00 0.00 0.00 69 1011.7
20260831192217 91 84 1.0 1.0 0.00 0.00 0.00 69 1012.0
20260831191713 90 84 3.0 3.0 0.00 0.00 0.00 70 1012.0
20260831191209 90 84 2.0 3.0 0.00 0.00 0.00 72 1011.9
20260831190704 91 83 0.0 1.0 0.00 0.00 0.00 74 1011.7
20260831190203 91 85 4.0 5.0 0.00 0.00 0.00 73 1011.9
20260831185659 90 83 1.0 1.0 0.00 0.00 0.00 74 1011.8
20260831185154 90 83 1.0 1.0 0.00 0.00 0.00 73 1011.8
20260831184653 89 83 2.0 2.0 0.00 0.00 0.00 75 1011.6
20260831184149 89 83 1.0 1.0 0.00 0.00 0.00 75 1011.9
20260831183649 89 86 4.0 5.0 0.00 0.00 0.00 74 1011.8
20260831183148 89 84 3.0 5.0 0.00 0.00 0.00 74 1012.0
20260831182647 89 83 1.0 1.0 0.00 0.00 0.00 74 1012.1
20260831182143 88 83 1.0 2.0 0.00 0.00 0.00 75 1012.0
20260831181638 88 83 0.0 1.0 0.00 0.00 0.00 74 1012.1
20260831181137 87 83 1.0 1.0 0.00 0.00 0.00 77 1012.1
20260831180633 88 84 2.0 3.0 0.00 0.00 0.00 74 1012.0
20260831180128 88 84 3.0 3.0 0.00 0.00 0.00 73 1012.2
20260831175622 88 84 2.0 3.0 0.00 0.00 0.00 74 1012.1
20260831175120 88 84 3.0 5.0 0.00 0.00 0.00 74 1012.0
20260831174614 88 83 1.0 1.0 0.00 0.00 0.00 73 1011.9
20260831174114 88 83 1.0 2.0 0.00 0.00 0.00 75 1011.6
20260831173613 87 83 1.0 2.0 0.00 0.00 0.00 75 1011.8
20260831173109 88 82 1.0 1.0 0.00 0.00 0.00 73 1011.4
20260831172609 88 82 0.0 1.0 0.00 0.00 0.00 71 1011.3
20260831172103 88 83 1.0 1.0 0.00 0.00 0.00 71 1011.4
20260831171559 87 82 0.0 1.0 0.00 0.00 0.00 72 1011.8
20260831171056 87 83 0.0 1.0 0.00 0.00 0.00 73 1011.8
20260831170552 87 82 0.0 0.0 0.00 0.00 0.00 72 1011.6
20260831170049 86 82 0.0 0.0 0.00 0.00 0.00 75 1011.7
20260831165549 86 83 2.0 2.0 0.00 0.00 0.00 76 1011.8
20260831165046 85 82 1.0 1.0 0.00 0.00 0.00 78 1011.9
20260831164541 85 82 0.0 0.0 0.00 0.00 0.00 78 1011.5
20260831164037 85 82 0.0 0.0 0.00 0.00 0.00 76 1011.6
20260831163532 85 82 0.0 0.0 0.00 0.00 0.00 76 1011.6
20260831163028 85 82 1.0 1.0 0.00 0.00 0.00 74 1011.3
20260831162526 85 82 3.0 3.0 0.00 0.00 0.00 75 1011.5
20260831162024 84 81 1.0 1.0 0.00 0.00 0.00 76 1011.2
20260831161521 84 81 0.0 0.0 0.00 0.00 0.00 78 1011.0